Temperature
17 17 17 17 17 17 17 17 17 17 17 17 18 18 18 18 18 18 18 18 18 18 18 18 18 18 18 18 18 18 18 18 18 18 18 18 18 18 18 18 18 18 18
17 17 17 17 17 17 17 17 17 17 17 17 17 18 18 18 18 18 18 18 18 18 18 18 18 18 18 18 18 18 18 18 18 18 18 18 18 18 18 18 18 18 18
17 17 17 17 17 17 17 17 17 17 17 17 17 17 18 18 18 18 18 18 18 18 18 17 18 18 17 18 18 17 17 17 18 18 18 18 18 18 18 18 18 18 18
17 17 17 17 17 17 17 17 17 17 17 17 17 17 17 18 18 18 18 18 17 18 18 17 17 17 17 17 17 17 17 17 17 17 17 17 18 18 18 18 18 18 18
17 17 17 17 17 17 17 17 17 17 17 17 17 17 17 17 17 17 17 17 17 17 17 17 17 17 17 17 17 17 17 17 17 17 17 17 17 17 18 18 18 18 18
17 17 17 17 17 17 17 17 17 17 17 17 17 17 17 17 17 17 17 17 17 17 17 17 17 17 17 17 17 17 17 17 17 17 17 17 17 17 17 17 17 17 17
17 17 17 17 17 17 17 17 17 17 17 17 17 17 17 17 17 17 17 17 17 17 17 17 17 17 17 17 17 17 17 17 17 17 17 17 17 17 17 17 17 17 17
17 17 17 17 17 17 17 17 17 17 17 17 17 17 17 17 17 17 17 17 17 17 17 17 17 16 16 17 17 17 17 17 17 17 17 17 17 17 17 17 17 17 17
17 17 17 17 17 17 17 17 17 16 16 17 17 17 17 17 17 17 17 17 17 17 17 16 16 16 16 16 17 17 17 17 17 17 17 17 17 17 17 17 17 17 17
17 17 17 17 17 17 17 17 16 16 16 16 16 16 16 16 16 16 16 17 16 16 16 16 16 16 16 16 16 16 16 16 16 16 16 16 16 17 17 17 17 17 17
17 17 17 17 17 17 16 16 16 16 16 16 16 16 16 16 16 16 16 16 16 16 16 16 16 16 16 16 16 16 16 16 16 16 16 16 16 16 16 16 16 16 16
17 17 17 17 17 17 17 16 16 16 16 16 16 16 16 16 16 16 16 16 16 16 16 16 16 16 16 16 16 16 16 16 16 16 16 16 16 16 16 16 16 16 16
17 17 17 17 17 17 17 17 16 16 16 16 16 16 16 16 16 16 16 16 16 16 16 16 16 16 16 16 16 16 16 16 16 16 16 16 16 16 16 16 16 16 16
17 17 17 17 17 17 17 16 16 16 16 16 16 16 16 16 16 16 16 16 16 16 16 16 16 16 16 16 16 16 16 16 16 16 15 15 15 15 15 15 15 15 15
17 17 17 17 17 17 17 16 16 16 16 16 16 16 16 16 16 16 16 16 16 16 16 16 15 15 16 16 16 16 16 15 15 15 15 15 15 15 15 15 15 15 15
18 17 17 17 17 17 17 16 16 16 16 16 16 16 16 16 16 16 16 16 16 15 15 15 15 15 15 15 15 15 15 15 15 15 15 15 15 15 15 15 15 15 15
18 18 17 17 17 17 17 16 16 16 16 16 16 16 16 16 16 16 16 16 15 15 15 15 15 15 15 15 15 15 15 15 15 15 15 15 15 15 15 14 14 14 14
18 18 17 17 17 17 16 16 16 16 16 16 16 16 16 16 16 15 15 15 15 15 15 15 15 15 15 15 15 15 15 15 15 15 15 15 15 15 14 14 14 14 14
18 18 17 17 17 17 16 16 16 16 16 16 16 16 16 16 15 15 15 15 15 15 15 15 15 15 15 15 15 15 15 15 14 14 14 14 14 14 14 14 14 14 14
18 18 17 17 17 17 16 16 16 16 16 16 15 15 15 15 15 15 15 15 15 15 15 15 15 15 15 15 14 14 14 14 14 14 14 14 14 14 14 14 14 14 14
18 18 17 17 17 16 16 16 16 16 16 15 15 15 15 15 15 15 15 15 15 15 15 15 15 15 15 15 15 14 14 14 14 14 14 14 14 14 14 14 14 14 14
18 17 17 17 16 16 16 16 16 15 15 15 15 15 15 15 15 15 15 15 15 15 15 15 15 15 14 14 14 14 14 14 14 13 14 14 14 14 14 13 13 13 13
18 18 17 17 16 16 16 16 15 15 15 15 15 15 15 15 15 15 15 15 15 15 15 15 14 15 14 14 14 14 14 13 13 13 13 13 13 13 13 13 13 13 13
18 18 17 17 16 16 16 16 16 15 15 15 15 15 15 15 14 14 14 14 14 14 14 14 14 14 14 14 14 14 14 14 13 13 13 13 13 13 13 13 13 13 13
18 17 17 17 16 16 16 16 16 15 15 15 15 15 15 14 14 14 14 14 14 14 14 14 14 14 14 14 14 14 14 14 14 13 13 13 13 13 13 13 13 13 13
18 17 17 17 16 16 16 16 16 15 15 15 15 15 15 15 14 14 14 14 14 14 14 14 14 14 14 14 14 14 14 14 14 14 13 13 13 13 13 12 12 13 13
Wind_Speed
1 0 5 6 7 7 8 8 9 9 10 11 11 11 11 11 11 10 10 10 10 10 10 10 10 10 11 11 10 10 10 10 10 10 9 9 9 8 8 9 8 7 9
4 3 5 6 7 7 7 7 8 9 9 10 11 11 10 10 10 10 10 11 11 10 10 10 11 11 11 11 10 10 10 10 9 9 9 8 8 8 8 9 8 7 8
5 5 5 6 7 7 7 7 8 9 9 10 10 10 10 10 10 10 10 10 10 11 11 10 11 11 11 11 11 10 10 10 9 9 8 7 7 8 8 9 9 9 8
6 5 5 6 6 7 7 7 8 8 8 9 9 9 10 10 9 10 10 10 10 10 10 10 10 10 11 11 11 11 11 10 10 8 7 6 6 8 9 9 9 8 8
5 6 6 6 6 7 7 7 8 8 8 8 8 9 9 10 10 10 10 10 10 10 10 10 10 10 10 11 11 11 11 10 10 9 8 7 7 8 9 9 9 9 8
4 5 6 6 6 7 7 8 8 8 8 8 8 8 8 9 9 9 9 10 10 10 10 10 10 10 10 10 10 10 10 10 10 9 8 7 7 9 10 9 9 9 8
4 4 6 6 7 7 7 7 7 7 7 8 7 7 8 8 8 8 8 9 9 10 10 10 10 10 10 10 10 10 11 11 10 8 7 7 8 9 9 9 9 9 9
5 5 5 7 7 7 7 7 6 6 7 7 7 7 7 7 7 7 8 8 8 9 9 10 10 10 10 11 11 12 11 10 9 8 6 6 8 9 9 9 9 8 8
5 5 4 5 5 6 5 6 6 6 6 6 6 6 6 5 6 7 7 7 8 8 9 9 9 9 10 11 11 12 11 11 8 6 7 6 8 9 9 9 8 8 8
4 3 3 3 4 3 3 4 5 4 4 4 5 5 5 5 5 6 6 6 7 8 8 8 8 9 10 10 11 12 11 10 8 7 6 7 9 9 9 9 8 8 8
3 2 3 3 3 3 3 2 3 2 2 2 3 4 4 4 3 4 5 6 7 7 7 8 8 9 9 10 11 11 10 8 8 7 6 8 9 9 9 8 8 8 8
3 3 2 3 3 3 2 2 1 2 2 3 3 3 4 3 3 4 5 6 6 7 7 8 9 9 8 7 8 9 8 8 7 6 7 8 9 9 9 8 8 8 8
3 3 3 3 3 3 2 2 2 2 3 3 3 4 5 5 4 5 5 5 6 6 6 7 8 8 8 7 7 7 7 7 7 6 7 9 8 9 9 9 9 8 8
4 4 3 3 3 3 3 2 2 2 3 3 3 4 5 4 4 4 4 4 5 5 6 6 7 8 8 8 8 8 8 7 7 6 7 9 9 9 9 9 9 8 8
4 3 3 4 4 3 3 3 3 3 3 3 4 6 7 5 3 3 3 5 5 6 6 6 6 7 7 7 8 8 7 7 7 7 7 9 9 9 9 9 9 9 9
4 4 4 5 3 4 3 3 3 3 4 5 5 6 8 7 5 4 4 4 5 6 7 7 7 6 6 6 6 7 7 7 7 7 6 7 8 8 8 9 9 9 9
6 5 4 5 4 4 3 3 3 4 5 5 5 6 7 7 7 5 4 3 4 6 7 7 7 7 5 5 5 5 6 6 6 6 6 6 6 7 8 8 9 9 9
7 5 4 5 5 4 4 4 4 4 5 5 5 6 7 7 8 6 4 3 6 7 6 4 4 5 5 4 4 3 4 4 5 6 6 6 6 6 7 9 9 9 9
7 7 5 5 5 4 4 4 4 4 4 4 5 6 7 7 8 7 4 4 6 6 4 4 4 4 4 4 3 3 3 3 3 5 5 6 6 7 7 7 8 9 9
7 6 6 5 4 4 4 4 3 4 3 4 4 5 6 6 7 7 5 5 6 4 4 4 4 3 3 3 4 4 4 3 3 3 3 5 6 6 6 7 7 7 8
6 6 6 5 4 4 3 3 2 1 1 2 3 5 5 5 6 6 4 4 4 4 3 4 3 4 3 3 4 4 4 5 4 3 3 3 4 4 6 6 7 6 6
6 6 6 6 5 4 3 3 2 2 1 1 2 3 4 5 5 5 4 3 3 3 4 3 3 2 1 2 3 3 2 4 4 4 3 2 2 4 4 5 6 6 6
7 7 7 6 5 4 4 3 3 3 3 2 2 1 1 2 4 5 5 4 3 3 3 3 3 3 2 0 1 3 3 1 1 3 3 3 3 3 3 5 5 5 5
7 7 7 6 5 4 4 5 5 3 2 2 2 1 1 1 3 5 5 4 3 3 3 3 2 2 3 1 0 1 2 4 2 1 3 3 3 3 2 3 4 4 5
7 7 6 6 5 4 4 5 5 3 2 1 1 1 0 0 1 3 4 3 3 2 2 2 2 2 2 2 1 1 2 2 2 2 1 2 3 2 2 2 3 3 4
6 6 6 6 4 4 5 5 6 5 4 3 2 2 1 1 0 1 3 3 3 2 2 2 2 3 2 1 1 1 2 2 2 2 2 1 1 2 2 1 2 2 3
Wind_Direction
243 202 90 80 76 73 73 75 77 74 71 69 70 72 72 73 79 83 84 85 87 87 84 81 80 79 79 83 89 96 100 99 100 98 98 98 99 100 104 108 104 102 102
173 146 102 88 82 80 77 79 81 78 74 72 72 72 72 75 81 83 85 87 88 88 86 84 82 81 79 80 86 93 97 97 96 94 93 94 97 101 106 107 107 108 105
139 128 110 98 89 87 84 82 86 86 80 75 73 73 73 75 83 86 87 88 89 87 85 83 81 82 80 81 83 88 94 92 89 87 87 87 92 99 107 108 107 108 104
139 131 116 105 97 96 93 89 90 91 87 82 78 76 76 77 82 87 88 87 90 90 88 85 84 83 83 82 81 82 87 85 84 80 76 81 92 101 109 110 107 107 104
129 128 120 114 109 105 101 96 93 92 90 88 84 81 80 82 83 85 87 89 91 90 87 86 84 81 85 84 82 81 83 83 79 75 72 76 87 101 107 107 106 106 104
125 135 131 122 116 115 108 100 94 94 92 91 89 85 83 84 85 86 87 89 91 91 90 87 84 81 82 81 80 81 82 81 76 71 71 75 87 97 102 103 103 106 105
137 144 135 122 118 120 115 109 106 102 98 95 90 88 86 84 86 89 94 94 94 94 92 89 85 82 79 76 77 83 86 85 79 75 73 76 89 96 103 103 101 102 102
151 151 135 126 123 123 121 117 113 108 104 100 94 89 86 87 89 89 98 101 100 99 99 94 87 84 78 75 76 81 86 86 83 77 71 80 95 98 103 104 102 102 103
148 145 147 135 128 128 130 127 122 114 105 101 98 93 90 89 92 91 98 103 107 107 105 99 91 87 81 80 78 80 84 85 78 76 75 82 93 97 100 104 104 102 102
135 138 158 151 142 144 144 140 134 127 119 110 107 108 100 95 97 92 95 105 110 111 110 102 94 88 82 78 76 76 78 75 68 66 67 80 87 92 95 98 99 98 97
122 135 148 158 168 176 177 154 144 134 131 123 113 107 89 87 92 91 96 106 109 111 108 100 92 88 81 75 75 75 72 66 65 57 62 78 84 86 88 90 94 97 95
127 138 148 148 153 155 143 118 92 87 93 108 117 113 91 97 98 95 89 97 100 100 95 91 89 84 77 71 72 74 71 65 63 58 62 75 82 83 84 84 88 93 94
144 134 128 136 119 103 94 96 81 80 79 80 95 113 101 95 91 88 82 69 77 80 77 76 74 76 79 78 75 75 73 68 64 61 64 73 79 81 81 82 84 87 91
132 129 125 118 98 98 94 79 75 78 72 76 92 105 108 99 92 92 84 75 76 80 80 77 78 77 79 80 82 78 75 73 68 61 64 72 76 79 81 82 82 83 88
130 129 130 112 109 98 86 83 77 68 72 72 84 99 109 105 101 98 89 90 92 91 88 84 82 82 79 78 83 84 80 77 76 68 63 70 74 75 74 74 77 79 85
145 140 129 118 120 109 99 85 75 71 64 72 83 96 104 107 105 98 88 88 90 91 91 90 87 86 79 78 75 80 79 79 80 76 66 63 68 70 69 67 73 77 81
152 144 134 127 114 112 107 89 84 76 75 71 76 90 101 104 101 101 96 91 89 95 93 87 79 77 76 71 64 69 73 77 79 77 73 63 61 64 66 66 71 76 81
150 146 135 120 111 108 106 97 88 81 77 73 73 84 90 98 105 102 95 90 97 95 93 88 78 79 72 66 60 54 66 72 71 77 74 69 69 67 66 68 70 75 80
155 148 127 114 115 108 101 97 92 84 76 76 76 79 89 94 99 102 98 103 102 96 88 97 84 92 89 74 66 56 51 59 60 78 71 69 74 73 70 68 70 71 74
149 139 131 125 121 111 95 84 70 64 56 64 74 80 93 102 101 101 103 97 98 90 78 84 91 82 93 90 78 58 39 41 54 65 70 70 75 76 77 73 66 66 66
143 134 137 132 137 123 111 108 101 91 55 40 65 82 91 102 105 105 105 101 97 95 98 100 98 83 75 93 82 50 28 32 43 44 51 60 61 71 78 76 74 67 61
151 149 147 149 152 148 147 152 153 150 128 94 50 68 82 96 110 117 117 112 107 104 96 95 102 101 92 92 109 93 36 10 13 27 33 56 54 68 73 82 81 76 69
154 160 159 160 157 155 145 119 96 73 53 43 31 18 25 91 112 121 127 124 120 121 134 137 133 132 152 284 128 136 138 195 330 353 10 27 36 56 68 87 89 85 79
168 162 156 162 159 158 146 138 138 138 151 205 211 230 313 93 116 130 138 139 137 136 142 160 142 145 143 174 327 98 151 154 149 352 345 2 20 43 55 90 96 89 85
165 161 162 160 159 159 154 153 149 151 178 186 172 170 237 1 104 126 142 142 143 146 146 145 132 132 144 157 163 113 87 83 117 142 235 328 360 3 31 81 101 97 91
157 156 157 158 165 165 160 156 157 162 167 160 172 183 214 263 317 120 145 139 145 151 159 161 149 147 148 139 138 134 144 149 159 148 171 213 286 324 5 39 96 113 101
Height
1542 1540 1539 1538 1537 1536 1535 1534 1533 1532 1531 1531 1530 1529 1529 1528 1528 1527 1527 1527 1527 1527 1527 1527 1527 1527 1527 1527 1527 1527 1528 1528 1529 1530 1531 1531 1532 1532 1532 1533 1533 1533 1534
1542 1541 1539 1538 1537 1536 1535 1534 1533 1533 1532 1531 1531 1530 1529 1529 1528 1528 1528 1527 1527 1527 1528 1528 1528 1528 1527 1528 1528 1529 1529 1530 1530 1531 1532 1532 1532 1533 1533 1533 1534 1534 1534
1542 1541 1540 1539 1538 1537 1535 1535 1534 1533 1533 1532 1531 1531 1530 1529 1529 1528 1528 1528 1528 1528 1528 1528 1528 1528 1529 1529 1529 1530 1530 1531 1531 1532 1532 1532 1533 1533 1533 1534 1534 1534 1535
1543 1541 1540 1539 1538 1537 1536 1535 1534 1534 1533 1533 1532 1532 1531 1530 1530 1529 1529 1529 1528 1529 1529 1529 1529 1529 1530 1530 1530 1531 1531 1532 1532 1532 1533 1533 1533 1534 1534 1534 1534 1535 1535
1543 1542 1541 1540 1538 1537 1537 1536 1535 1534 1534 1533 1533 1533 1532 1531 1530 1530 1530 1529 1529 1529 1529 1530 1530 1531 1531 1531 1531 1532 1532 1532 1533 1533 1533 1533 1534 1534 1534 1535 1535 1535 1536
1544 1543 1542 1540 1539 1538 1537 1537 1536 1535 1535 1534 1534 1533 1533 1532 1531 1531 1531 1530 1530 1530 1530 1531 1531 1532 1532 1532 1533 1533 1533 1533 1533 1533 1534 1534 1534 1535 1535 1535 1535 1536 1536
1544 1543 1543 1542 1541 1540 1539 1538 1537 1537 1536 1536 1535 1534 1534 1533 1533 1532 1532 1532 1532 1532 1532 1532 1532 1533 1533 1533 1533 1533 1534 1534 1535 1534 1535 1535 1535 1535 1536 1536 1536 1536 1536
1545 1544 1544 1543 1542 1541 1540 1539 1539 1538 1537 1537 1536 1536 1535 1535 1534 1534 1533 1533 1533 1533 1533 1533 1534 1534 1534 1534 1534 1534 1535 1535 1535 1535 1536 1536 1536 1536 1536 1536 1536 1536 1536
1546 1545 1545 1544 1543 1542 1542 1541 1540 1540 1539 1538 1538 1537 1536 1536 1536 1535 1535 1534 1534 1534 1534 1535 1535 1535 1536 1536 1536 1536 1536 1536 1536 1536 1536 1537 1537 1537 1537 1537 1537 1537 1537
1547 1546 1546 1545 1544 1544 1543 1542 1541 1541 1540 1540 1539 1538 1538 1537 1537 1536 1536 1535 1535 1536 1536 1536 1537 1537 1537 1537 1537 1537 1537 1538 1538 1538 1538 1538 1537 1537 1537 1537 1537 1537 1537
1548 1547 1547 1546 1545 1545 1544 1543 1543 1542 1542 1541 1540 1540 1539 1539 1538 1538 1537 1537 1537 1537 1537 1538 1538 1538 1539 1539 1539 1539 1539 1539 1539 1539 1539 1538 1538 1538 1538 1538 1537 1537 1537
1548 1548 1547 1547 1546 1546 1545 1545 1544 1543 1543 1542 1542 1541 1541 1540 1540 1539 1539 1539 1538 1538 1539 1539 1540 1540 1540 1540 1540 1540 1540 1540 1540 1540 1540 1540 1539 1539 1538 1538 1538 1538 1537
1549 1549 1548 1548 1547 1547 1546 1545 1545 1544 1544 1543 1543 1542 1542 1541 1541 1540 1540 1540 1540 1540 1540 1541 1541 1541 1541 1541 1542 1541 1541 1541 1541 1541 1541 1540 1540 1540 1539 1539 1538 1538 1538
1549 1549 1549 1548 1548 1548 1547 1546 1546 1545 1545 1544 1544 1543 1543 1542 1542 1542 1542 1541 1541 1542 1542 1542 1542 1542 1543 1543 1543 1543 1543 1543 1542 1542 1542 1542 1541 1541 1540 1539 1539 1538 1538
1549 1549 1549 1549 1549 1548 1548 1547 1547 1546 1546 1545 1545 1545 1544 1544 1543 1543 1543 1543 1543 1543 1543 1543 1543 1544 1544 1544 1544 1544 1544 1544 1544 1543 1543 1543 1542 1542 1541 1540 1540 1539 1539
1549 1550 1549 1549 1549 1549 1548 1548 1547 1547 1547 1546 1546 1546 1545 1545 1545 1544 1544 1544 1544 1545 1545 1545 1545 1545 1545 1545 1545 1545 1545 1545 1545 1544 1544 1543 1543 1543 1542 1541 1541 1540 1539
1549 1549 1550 1549 1549 1549 1549 1548 1548 1548 1547 1547 1547 1547 1546 1546 1546 1545 1545 1545 1546 1546 1546 1546 1546 1546 1546 1546 1546 1546 1546 1546 1546 1545 1545 1544 1544 1543 1543 1542 1541 1541 1540
1549 1549 1549 1549 1549 1549 1549 1549 1549 1548 1548 1548 1548 1547 1547 1547 1547 1546 1546 1546 1547 1547 1547 1547 1547 1547 1547 1547 1547 1547 1547 1547 1547 1546 1546 1546 1545 1544 1544 1543 1542 1542 1541
1548 1549 1549 1549 1549 1549 1550 1549 1549 1549 1549 1549 1548 1548 1548 1548 1547 1547 1547 1547 1548 1548 1548 1548 1548 1548 1548 1548 1548 1548 1548 1548 1548 1548 1547 1547 1546 1545 1545 1544 1543 1542 1542
1548 1548 1549 1549 1549 1549 1549 1549 1549 1549 1549 1549 1549 1549 1548 1548 1548 1548 1548 1548 1548 1549 1549 1549 1549 1549 1549 1549 1549 1549 1549 1549 1549 1549 1548 1548 1547 1546 1546 1545 1544 1543 1543
1547 1548 1548 1548 1549 1549 1549 1549 1549 1549 1549 1549 1549 1549 1549 1549 1549 1549 1549 1549 1549 1549 1549 1550 1549 1549 1550 1550 1550 1550 1550 1550 1550 1550 1549 1548 1548 1547 1546 1546 1545 1544 1543
1546 1547 1548 1548 1548 1549 1549 1549 1549 1549 1549 1549 1549 1549 1549 1549 1549 1549 1549 1549 1549 1549 1550 1550 1550 1550 1550 1550 1550 1550 1550 1552 1551 1550 1550 1549 1548 1548 1547 1546 1545 1545 1544
1545 1546 1547 1547 1548 1548 1548 1549 1549 1549 1549 1549 1549 1549 1549 1549 1549 1549 1549 1549 1549 1549 1550 1550 1550 1550 1550 1550 1550 1551 1550 1550 1551 1551 1550 1549 1549 1548 1547 1546 1546 1545 1544
1544 1545 1546 1547 1547 1548 1548 1548 1548 1548 1548 1549 1549 1549 1549 1549 1548 1548 1549 1549 1549 1549 1549 1549 1550 1550 1550 1550 1550 1550 1551 1550 1550 1550 1551 1550 1549 1548 1548 1547 1546 1545 1545
1543 1544 1545 1546 1546 1547 1547 1547 1547 1548 1548 1548 1548 1548 1548 1548 1548 1548 1548 1548 1548 1549 1549 1549 1549 1549 1549 1550 1549 1549 1549 1549 1549 1549 1549 1549 1549 1548 1548 1547 1547 1546 1545
1542 1543 1544 1545 1545 1546 1546 1546 1546 1547 1547 1547 1547 1547 1547 1548 1548 1548 1548 1548 1548 1548 1548 1548 1549 1549 1549 1549 1549 1549 1549 1549 1548 1548 1548 1548 1548 1548 1548 1547 1547 1546 1545